Torna al catalogo

STARLINK-11713

AttivoComunicazioniVLEO
NORAD 64070·PAYLOAD·🇺🇸 United States

Lanciato May 21, 2025 da Cape Canaveral Space Force Station

Loading…

Prossimi Passaggi (prossime 24 ore)

TLE

AggiornatoSource: CelesTrak SupGP

Epoca: Sep 15, 2026, 04:01 UTC

1 64070C 25107G   26258.16784722 -.00029842  00000+0 -23173-3 0  2585
2 64070  43.0009  36.2804 0001905 252.2476 201.7145 15.70857718    11

Traccia STARLINK-11713 in tempo reale con AllMySat

Download on the App Store